Regional Weather Roundup
Issued by NWS

Home | Current Version | Previous Version | Text Only | Print | Product List | Glossary On
Versions: 1 2 3 4 5 6 7 8 9 10 11 12 13 14 15 16 17 18 19 20 21 22 23 24 25 26 27 28 29 30 31 32 33 34 35 36 37 38 39 40 41 42 43 44 45 46 47 48 49 50
000
ASUS45 KPSR 200410
RWRAZ

ARIZONA REGIONAL HOURLY WEATHER ROUNDUP
NATIONAL WEATHER SERVICE PHOENIX AZ
900 PM MST FRI DEC 19 2014

NOTE: FAIR INDICATES FEW OR NO CLOUDS BELOW 12,000 FEET WITH NO
SIGNIFICANT WEATHER AND/OR OBSTRUCTIONS TO VISIBILITY.

AZZ001>003-036-200500-
NORTHWEST ARIZONA

CITY           SKY/WX    TMP DP  RH WIND       PRES   REMARKS
BULLHEAD CITY  CLOUDY    54  41  62 E6        30.17F
KINGMAN        CLOUDY    40  33  76 SE9       30.17S WCI  34
$$

AZZ004>008-015-016-018-200500-
NORTH CENTRAL ARIZONA

CITY           SKY/WX    TMP DP  RH WIND       PRES   REMARKS
GRAND CANYON   MOCLDY    25  22  88 CALM      30.21S
PRESCOTT       PTCLDY    34  27  75 S6        30.19F WCI  29
FLAGSTAFF      FOG       28  27  96 NW3       30.22R VSB 1/4
PAYSON         CLEAR     37  28  70 NE6       30.20F WCI  33
PAGE           MOCLDY    38  30  73 SW6       30.21S HAZE    WCI  33
$$

AZZ009>014-017-200500-
NORTHEAST ARIZONA

CITY           SKY/WX    TMP DP  RH WIND       PRES   REMARKS
WINSLOW        CLEAR     29  27  92 S3        30.23F
SAINT JOHNS    CLEAR     27  26  96 W5        30.22R WCI  22
WINDOW ROCK    PTCLDY    29  24  82 CALM      30.22R
SHOW LOW       CLEAR     27  25  93 CALM      30.25R
$$

AZZ023-200500-
GREATER PHOENIX AREA

CITY           SKY/WX    TMP DP  RH WIND       PRES   REMARKS
PHOENIX        PTCLDY    56  40  55 CALM      30.13F
BUCKEYE          N/A     46  46 100 NW5       30.15S
LUKE AFB       PTCLDY    49  42  76 NE8       30.13F
DEER VALLEY    CLEAR     49  41  74 CALM      30.14S
SCOTTSDALE     CLEAR     52  40  63 CALM      30.15F
MESA-GATEWAY   PTCLDY    48  39  71 CALM      30.16F
CHANDLER       CLEAR     50  43  76 CALM      30.15
$$

AZZ027-028-200500-
SOUTHWEST MARICOPA COUNTY AND PINAL COUNTY

CITY           SKY/WX    TMP DP  RH WIND       PRES   REMARKS
CASA GRANDE    CLEAR     52  37  58 CALM      30.15F
GILA BEND      FAIR      50  43  75 SE5       30.16S
$$

AZZ503-504-507>509-200500-
SOUTHEAST ARIZONA

CITY           SKY/WX    TMP DP  RH WIND       PRES   REMARKS
TUCSON         CLEAR     48  40  73 S5        30.18R
DAVIS-MONTHAN  CLEAR     47  40  77 W2        30.16R
NOGALES        CLEAR     44  30  57 SW5       30.15R
SIERRA VISTA   CLEAR     37  30  75 W5        30.17R WCI  34
DOUGLAS        CLEAR     33  29  85 W5        30.16S WCI  29
SAFFORD        CLEAR     41  36  82 S5        30.16S
$$

AZZ020-021-025-026-031-200500-
SOUTHWEST ARIZONA

CITY           SKY/WX    TMP DP  RH WIND       PRES   REMARKS
YUMA           MOCLDY   N/A N/A N/A CALM      30.15R
$$

CAZ031-033-041-043-047-048-061-200500-
SOUTHERN CALIFORNIA

CITY           SKY/WX    TMP DP  RH WIND       PRES   REMARKS
DOWNTOWN L.A.  MOCLDY    57  50  77 CALM      30.16F
L.A. AIRPORT   MOCLDY    60  51  72 NW7       30.17F
SAN DIEGO      MOCLDY    60  52  74 N3        30.19R
BURBANK        MOCLDY    57  47  69 CALM      30.17F
ONTARIO        PTCLDY    55  47  74 W5        30.17S
RIVERSIDE      CLEAR     55  48  77 W3        30.18R
PALM SPRINGS   PTCLDY    58  44  60 NW5       30.17S
EL CENTRO NAS  MOCLDY    53  42  66 W5        30.15S
IMPERIAL       MOCLDY    53  42  66 W3        30.14S
BLYTHE         CLOUDY    55  47  74 CALM      30.14F
NEEDLES        CLOUDY    54  43  66 W5        30.16S
$$

NVZ020-UTZ003-200500-
SOUTHERN NEVADA-UTAH

CITY           SKY/WX    TMP DP  RH WIND       PRES   REMARKS
LAS VEGAS      MOCLDY    51  40  65 S7        30.13F
SALT LAKE CITY CLOUDY    42  30  62 SW3       30.13R
$$

NMZ009-TXZ055-200500-
NEW MEXICO-WEST TEXAS

CITY           SKY/WX    TMP DP  RH WIND       PRES   REMARKS
ALBUQUERQUE    PTCLDY    36  24  62 N7        30.19S WCI  30
EL PASO        PTCLDY    44  29  55 N7        30.16R
$$


........................KEY........................
SKY/WX - SKY CONDITION/WEATHER
TMP    - TEMPERATURE IN FAHRENHEIT
DP     - DEW POINT IN FAHRENHEIT
RH     - RELATIVE HUMIDITY IN PERCENT
WIND   - DIRECTION AND SPEED IN MILES PER HOUR (MPH)
VRB    - VARIABLE WIND DIRECTION
PRES   - MEAN SEA LEVEL PRESSURE IN INCHES OF MERCURY
         F - FALLING PRESSURE   R - RISING PRESSURE
         S - STEADY PRESSURE
VSB    - VISIBILITY IN MILES
HX     - HEAT INDEX IN FAHRENHEIT
WCI    - WIND CHILL INDEX IN FAHRENHEIT
TC     - TEMPERATURE IN CELSIUS WHICH IS ALSO KNOWN AS
         TEMPERATURE IN CENTIGRADE
AFB    - AIR FORCE BASE
         LUKE AFB IS LUKE AIR FORCE BASE
         DAVIS-MONTHAN IS DAVIS-MONTHAN AIR FORCE BASE
NAS    - NAVAL AIR STATION
         EL CENTRO NAS IS EL CENTRO NAVAL AIR STATION
N/A    - NOT AVAILABLE



USA.gov is the U.S. government's official web portal to all federal, state and local government web resources and services.